Madison, SD

3:57 AM CST on December 07, 2016 (GMT -0600)
Madison Municipal

Weather History for KMDS - February, 2014

Change the Weather History Date:

Thursday, February 13, 2014

  Actual Average Record
Temperature  
Mean Temperature 20 °F -  
Max Temperature 33 °F 28 °F 42 °F (2011)
Min Temperature 6 °F 6 °F -2 °F (2016)
Degree Days  
Heating Degree Days 46    
Moisture  
Dew Point 16 °F    
Average Humidity 92    
Maximum Humidity 100    
Minimum Humidity 79    
Precipitation  
Precipitation 0.10 in - - ()
Sea Level Pressure  
Sea Level Pressure 29.65 in    
Wind  
Wind Speed 19 mph (NW)    
Max Wind Speed 31 mph    
Max Gust Speed 40 mph    
Visibility 10 miles    
Events Rain , Snow    
Averages and records for this station are not official NWS values.
T = Trace of Precipitation, MM = Missing Value Source: NWS Daily Summary

Daily Weather History Graph

Daily Weather History Graph

Search for Another Location

Airport or City:

Trip Planner

Search our weather history database for the weather conditions in past years. The results will help you decide how hot, cold, wet, or windy it might be!

Date:

Astronomy

Feb. 13, 2014 Rise Set
Actual Time 7:30 AM CST 5:55 PM CST
Civil Twilight 7:00 AM CST 6:25 PM CST
Nautical Twilight 6:26 AM CST 6:59 PM CST
Astronomical Twilight 5:53 AM CST 7:32 PM CST
Moon 5:04 PM CST (2/13) 6:24 AM CST (2/13)
Length of Visible Light 11h 24m
Length of Day
10h 25m
Waxing Gibbous, 99% of the Moon is Illuminated
Feb 13
Waxing Gibbous
Feb 14
Full
Feb 22
Last Quarter
Mar 1
New
Mar 8
First Quarter

Hourly Weather History & Observations

Time (CST) Temp. Windchill Dew Point Humidity Pressure Visibility Wind Dir Wind Speed Gust Speed Precip Events Conditions
12:05 AM 23.0 °F 8.0 °F 23.0 °F 100% 29.55 in 10.0 mi South 20.7 mph 28.8 mph N/A   Overcast
12:25 AM 23.0 °F 8.3 °F 23.0 °F 100% 29.56 in 10.0 mi South 19.6 mph 27.6 mph N/A   Mostly Cloudy
12:45 AM 24.8 °F 10.7 °F 24.8 °F 100% 29.54 in 10.0 mi South 19.6 mph 24.2 mph N/A   Overcast
1:05 AM 23.0 °F 8.0 °F 23.0 °F 100% 29.53 in 10.0 mi South 20.7 mph - N/A   Mostly Cloudy
1:25 AM 24.8 °F 10.7 °F 24.8 °F 100% 29.51 in 10.0 mi South 19.6 mph - N/A   Partly Cloudy
1:45 AM 24.8 °F 11.1 °F 24.8 °F 100% 29.51 in 10.0 mi SSW 18.4 mph - N/A   Mostly Cloudy
2:05 AM 26.6 °F 14.7 °F 26.6 °F 100% 29.50 in 10.0 mi SSW 15.0 mph - N/A   Mostly Cloudy
2:25 AM 26.6 °F 13.8 °F 26.6 °F 100% 29.49 in 10.0 mi SSW 17.3 mph 21.9 mph N/A   Mostly Cloudy
2:45 AM 28.4 °F 16.2 °F 28.4 °F 100% 29.49 in 10.0 mi SSW 17.3 mph - N/A   Scattered Clouds
3:05 AM 28.4 °F 16.6 °F 28.4 °F 100% 29.49 in 10.0 mi SW 16.1 mph 21.9 mph N/A   Clear
3:25 AM 30.2 °F 18.1 °F 28.4 °F 93% 29.48 in 10.0 mi WSW 18.4 mph 24.2 mph N/A   Clear
3:45 AM 30.2 °F 18.5 °F 28.4 °F 93% 29.47 in 10.0 mi WSW 17.3 mph 25.3 mph N/A   Clear
4:05 AM 28.4 °F 16.2 °F 28.4 °F 100% 29.49 in 10.0 mi WSW 17.3 mph 23.0 mph N/A   Clear
4:25 AM 32.0 °F 21.2 °F 30.2 °F 93% 29.49 in 10.0 mi WSW 16.1 mph - N/A   Clear
4:45 AM 32.0 °F 21.6 °F 30.2 °F 93% 29.49 in 10.0 mi West 15.0 mph 23.0 mph N/A   Clear
5:05 AM 32.0 °F 20.1 °F 32.0 °F 100% 29.50 in 10.0 mi West 19.6 mph 25.3 mph N/A   Clear
5:25 AM 33.8 °F 22.8 °F 32.0 °F 93% 29.50 in 10.0 mi West 18.4 mph - N/A   Clear
5:45 AM 32.0 °F 20.1 °F 32.0 °F 100% 29.51 in 10.0 mi West 19.6 mph 24.2 mph N/A   Clear
6:05 AM 32.0 °F 20.8 °F 32.0 °F 100% 29.51 in 10.0 mi WNW 17.3 mph 24.2 mph N/A   Clear
6:25 AM 32.0 °F 21.2 °F 30.2 °F 93% 29.52 in 10.0 mi West 16.1 mph - N/A   Clear
6:45 AM 32.0 °F 20.8 °F 32.0 °F 100% 29.53 in 10.0 mi WNW 17.3 mph 21.9 mph N/A   Clear
7:05 AM 32.0 °F 19.2 °F 32.0 °F 100% 29.54 in 10.0 mi WNW 23.0 mph 31.1 mph N/A   Scattered Clouds
7:25 AM 32.0 °F 17.9 °F 32.0 °F 100% 29.57 in 10.0 mi NW 28.8 mph 38.0 mph N/A   Overcast
7:45 AM 30.2 °F 15.7 °F 30.2 °F 100% 29.59 in 10.0 mi NW 27.6 mph 35.7 mph N/A   Mostly Cloudy
8:05 AM 26.6 °F 10.0 °F 26.6 °F 100% 29.61 in 10.0 mi NW 31.1 mph 39.1 mph N/A   Overcast
8:25 AM 23.0 °F 7.6 °F 23.0 °F 100% 29.63 in 10.0 mi NW 21.9 mph 32.2 mph N/A   Overcast
8:45 AM 21.2 °F 3.0 °F 19.4 °F 93% 29.64 in 10.0 mi NW 29.9 mph 35.7 mph N/A Snow Light Snow
9:05 AM 19.4 °F 1.4 °F 15.8 °F 86% 29.66 in 10.0 mi NW 26.5 mph 40.3 mph N/A   Clear
9:25 AM 17.6 °F 0.9 °F 15.8 °F 93% 29.66 in 10.0 mi NW 20.7 mph 31.1 mph N/A   Clear
9:45 AM 15.8 °F -3.7 °F 14.0 °F 93% 29.67 in 10.0 mi NW 27.6 mph 34.5 mph N/A   Partly Cloudy
10:05 AM 14.0 °F -5.5 °F 14.0 °F 100% 29.69 in 10.0 mi NW 25.3 mph 28.8 mph N/A   Mostly Cloudy
10:25 AM 14.0 °F -5.8 °F 12.2 °F 93% 29.70 in 10.0 mi NW 26.5 mph 32.2 mph N/A   Overcast
10:45 AM 14.0 °F -6.5 °F 10.4 °F 86% 29.71 in 10.0 mi NW 28.8 mph 38.0 mph N/A   Mostly Cloudy
11:05 AM 14.0 °F -5.5 °F 12.2 °F 93% 29.71 in 10.0 mi NW 25.3 mph 32.2 mph N/A   Mostly Cloudy
11:25 AM 14.0 °F -4.7 °F 12.2 °F 93% 29.71 in 3.0 mi NW 23.0 mph 33.4 mph 0.04 in Snow Light Snow
11:45 AM 12.2 °F -8.6 °F 8.6 °F 85% 29.71 in 10.0 mi NW 27.6 mph 32.2 mph 0.05 in   Mostly Cloudy
12:05 PM 14.0 °F -6.2 °F 8.6 °F 79% 29.72 in 10.0 mi NW 27.6 mph 34.5 mph N/A   Mostly Cloudy
12:25 PM 12.2 °F -7.9 °F 8.6 °F 85% 29.72 in 10.0 mi NW 25.3 mph 33.4 mph N/A Rain Light Freezing Rain
12:45 PM 14.0 °F -4.7 °F 8.6 °F 79% 29.72 in 10.0 mi NW 23.0 mph 31.1 mph N/A   Scattered Clouds
1:25 PM 14.0 °F -5.1 °F 10.4 °F 86% 29.72 in 10.0 mi NW 24.2 mph 27.6 mph N/A   Scattered Clouds
1:45 PM 12.2 °F -7.1 °F 8.6 °F 85% 29.72 in 10.0 mi NW 23.0 mph 27.6 mph N/A   Mostly Cloudy
2:05 PM 12.2 °F -6.7 °F 8.6 °F 85% 29.72 in 10.0 mi NW 21.9 mph - N/A   Scattered Clouds
2:25 PM 12.2 °F -6.7 °F 8.6 °F 85% 29.72 in 10.0 mi NW 21.9 mph 27.6 mph N/A   Scattered Clouds
2:45 PM 14.0 °F -4.3 °F 8.6 °F 79% 29.71 in 10.0 mi NW 21.9 mph 26.5 mph N/A   Clear
3:05 PM 14.0 °F -4.3 °F 8.6 °F 79% 29.72 in 10.0 mi NW 21.9 mph - N/A   Clear
3:25 PM 14.0 °F -3.0 °F 8.6 °F 79% 29.73 in 10.0 mi NW 18.4 mph 26.5 mph N/A   Clear
3:45 PM 12.2 °F -3.1 °F 6.8 °F 79% 29.72 in 10.0 mi NW 13.8 mph - N/A   Clear
4:05 PM 12.2 °F -4.3 °F 6.8 °F 79% 29.73 in 10.0 mi NW 16.1 mph - N/A   Clear
4:25 PM 12.2 °F -3.1 °F 6.8 °F 79% 29.73 in 10.0 mi NW 13.8 mph - N/A   Partly Cloudy
4:45 PM 10.4 °F -6.0 °F 6.8 °F 85% 29.74 in 10.0 mi NNW 15.0 mph - N/A   Scattered Clouds
5:05 PM 10.4 °F -4.8 °F 6.8 °F 85% 29.75 in 10.0 mi NNW 12.7 mph - N/A   Partly Cloudy
5:25 PM 10.4 °F -4.1 °F 6.8 °F 85% 29.74 in 10.0 mi NW 11.5 mph - N/A   Clear
5:45 PM 8.6 °F -5.5 °F 5.0 °F 85% 29.75 in 10.0 mi NW 10.4 mph - N/A   Clear
6:05 PM 8.6 °F -3.7 °F 6.8 °F 92% 29.76 in 10.0 mi WNW 8.1 mph - N/A   Clear
6:25 PM 8.6 °F -4.7 °F 6.8 °F 92% 29.75 in 10.0 mi WNW 9.2 mph - N/A   Clear
6:45 PM 8.6 °F -3.7 °F 6.8 °F 92% 29.74 in 10.0 mi NNW 8.1 mph - N/A   Scattered Clouds
7:05 PM 8.6 °F -2.6 °F 6.8 °F 92% 29.75 in 10.0 mi NNW 6.9 mph - N/A   Partly Cloudy
7:25 PM 6.8 °F -5.9 °F 5.0 °F 92% 29.75 in 10.0 mi NW 8.1 mph - N/A   Clear
7:45 PM 6.8 °F -3.5 °F 5.0 °F 92% 29.73 in 10.0 mi North 5.8 mph - N/A   Clear
8:05 PM 6.8 °F -3.5 °F 5.0 °F 92% 29.74 in 10.0 mi NNW 5.8 mph - N/A   Mostly Cloudy
8:25 PM 8.6 °F -2.6 °F 6.8 °F 92% 29.74 in 10.0 mi North 6.9 mph - N/A   Overcast
8:45 PM 8.6 °F -4.7 °F 6.8 °F 92% 29.74 in 10.0 mi NNW 9.2 mph - N/A   Overcast
9:05 PM 8.6 °F -2.6 °F 6.8 °F 92% 29.73 in 10.0 mi North 6.9 mph - N/A   Mostly Cloudy
9:25 PM 8.6 °F -3.7 °F 6.8 °F 92% 29.74 in 10.0 mi North 8.1 mph - N/A   Overcast
9:45 PM 8.6 °F -7.7 °F 6.8 °F 92% 29.73 in 10.0 mi NNE 13.8 mph - N/A   Overcast
10:05 PM 8.6 °F -6.3 °F 6.8 °F 92% 29.73 in 10.0 mi NNE 11.5 mph - N/A   Overcast
10:25 PM 8.6 °F -4.7 °F 6.8 °F 92% 29.73 in 10.0 mi NNE 9.2 mph - N/A   Overcast
10:45 PM 8.6 °F -7.7 °F 6.8 °F 92% 29.73 in 10.0 mi NE 13.8 mph - N/A   Overcast
11:05 PM 8.6 °F -8.3 °F 6.8 °F 92% 29.69 in 3.0 mi NE 15.0 mph 20.7 mph N/A Snow Light Snow
11:25 PM 8.6 °F -8.9 °F 6.8 °F 92% 29.68 in 3.0 mi NE 16.1 mph - 0.03 in Snow Light Snow
11:45 PM 8.6 °F -5.5 °F 6.8 °F 92% 29.69 in 4.0 mi ENE 10.4 mph - 0.05 in Snow Light Snow